Date String (YYYY-MM-DD hh:mm:ss) UTC,Instrument flags,Ambient pressure (hPa),Sample flow (lpm),Bypass flow (lpm),Sample temperature (°C),Ambient temperature (°C),ASC tube jacket temperature (°C),LED temperature (°C),Box temperature (°C),Sample RH (%),Span deviation,Mass concentration (μg/m³),Mass concentration (μg/m³),Mass concentration (μg/m³)
DateTimeUTC,F1_M11,P_M11,Q1_M11,Q2_M11,T1_M11,T2_M11,T3_M11,T4_M11,T5_M11,U1_M11,ZSPAN_M11,X0_M11,X2_M11,X1_M11
2022-08-20 07:00:00,,0829.8,5.00,0.00,30.1,29.1,00.0,38.8,32.0,30.5,0000.0,0014.73,0007.08,0005.84
2022-08-20 07:01:00,,0829.8,5.01,0.00,30.1,29.1,00.0,38.8,32.0,30.8,0000.0,0015.56,0007.09,0005.83
2022-08-20 07:02:00,,0829.8,5.00,0.00,30.1,29.1,00.0,38.9,32.1,30.6,0000.0,0015.77,0007.08,0005.84
2022-08-20 07:03:00,,0829.8,4.99,0.00,30.2,29.2,00.0,38.9,32.1,30.8,0000.0,0015.55,0007.05,0005.83
2022-08-20 07:04:00,,0829.7,5.01,0.00,30.2,28.9,00.0,38.9,32.0,30.9,0000.0,0014.61,0007.03,0005.81
2022-08-20 07:05:00,,0829.8,4.99,0.00,30.1,28.2,00.0,38.8,31.8,30.6,0000.0,0014.29,0007.03,0005.81
2022-08-20 07:06:00,,0829.8,5.01,0.00,30.1,27.8,00.0,38.8,31.7,30.7,0000.0,0014.85,0007.05,0005.84
2022-08-20 07:07:00,,0829.8,5.00,0.00,30.0,27.7,00.0,38.8,31.6,30.8,0000.0,0015.59,0007.08,0005.85
2022-08-20 07:08:00,,0829.8,4.99,0.00,29.9,27.8,00.0,38.8,31.6,30.9,0000.0,0015.74,0007.10,0005.87
2022-08-20 07:09:00,,0829.8,5.01,0.00,29.9,27.9,00.0,38.7,31.6,30.9,0000.0,0016.68,0007.13,0005.90
2022-08-20 07:10:00,,0829.8,5.01,0.00,29.9,28.0,00.0,38.7,31.6,31.1,0000.0,0016.77,0007.11,0005.91
2022-08-20 07:11:00,,0829.8,4.99,0.00,29.8,28.1,00.0,38.7,31.6,31.3,0000.0,0016.23,0007.16,0005.94
2022-08-20 07:12:00,,0829.8,4.99,0.00,29.8,28.2,00.0,38.7,31.7,31.2,0000.0,0015.73,0007.16,0005.97
2022-08-20 07:13:00,,0829.8,5.01,0.00,29.8,28.3,00.0,38.7,31.7,31.2,0000.0,0015.33,0007.17,0005.98
2022-08-20 07:14:00,,0829.8,5.00,0.00,29.9,28.4,00.0,38.7,31.7,31.1,0000.0,0015.35,0007.19,0006.01
2022-08-20 07:15:00,,0829.8,5.00,0.00,29.9,28.5,00.0,38.7,31.7,30.9,0000.0,0015.35,0007.19,0006.03
2022-08-20 07:16:00,,0829.8,5.01,0.00,29.9,28.5,00.0,38.7,31.7,30.9,0000.0,0015.19,0007.17,0006.03
2022-08-20 07:17:00,,0829.8,5.00,0.00,29.9,28.6,00.0,38.7,31.7,30.8,0000.0,0014.73,0007.19,0006.02
2022-08-20 07:18:00,,0829.9,4.99,0.00,29.9,28.7,00.0,38.7,31.7,30.8,0000.0,0014.03,0007.14,0006.02
2022-08-20 07:19:00,,0829.8,4.99,0.00,29.9,28.7,00.0,38.7,31.7,30.7,0000.0,0013.88,0007.12,0006.00
2022-08-20 07:20:00,,0829.9,5.00,0.00,29.9,28.8,00.0,38.7,31.8,30.7,0000.0,0013.18,0007.08,0005.98
2022-08-20 07:21:00,,0829.8,5.01,0.00,29.9,28.8,00.0,38.7,31.9,30.6,0000.0,0012.54,0007.06,0005.97
2022-08-20 07:22:00,,0829.8,5.00,0.00,30.0,28.8,00.0,38.7,31.8,30.4,0000.0,0012.53,0007.06,0005.97
2022-08-20 07:23:00,,0829.9,5.00,0.00,30.0,28.9,00.0,38.7,31.8,30.0,0000.0,0012.41,0007.07,0005.97
2022-08-20 07:24:00,,0829.9,4.99,0.00,30.0,28.9,00.0,38.7,31.9,30.2,0000.0,0012.19,0007.03,0005.95
2022-08-20 07:25:00,,0829.9,5.00,0.00,30.0,28.9,00.0,38.7,31.9,30.4,0000.0,0011.98,0007.00,0005.94
2022-08-20 07:26:00,,0829.9,4.99,0.00,30.0,29.0,00.0,38.8,31.9,30.2,0000.0,0011.79,0006.99,0005.94
2022-08-20 07:27:00,,0829.9,5.01,0.00,30.0,29.0,00.0,38.8,32.0,30.2,0000.0,0011.72,0007.01,0005.94
2022-08-20 07:28:00,,0830.0,4.99,0.00,30.1,29.0,00.0,38.8,32.0,30.0,0000.0,0011.87,0007.00,0005.94
2022-08-20 07:29:00,,0829.9,5.00,0.00,30.1,29.0,00.0,38.8,32.0,30.1,0000.0,0012.12,0006.99,0005.92
2022-08-20 07:30:00,,0829.8,5.01,0.00,30.1,29.0,00.0,38.8,32.0,30.0,0000.0,0012.22,0006.99,0005.92
2022-08-20 07:31:00,,0829.8,5.00,0.00,30.1,29.1,00.0,38.8,32.0,29.8,0000.0,0012.27,0007.01,0005.92
2022-08-20 07:32:00,,0829.8,5.01,0.00,30.1,29.1,00.0,38.8,32.0,29.7,0000.0,0012.42,0007.05,0005.93
2022-08-20 07:33:00,,0829.8,4.99,0.00,30.1,29.1,00.0,38.9,32.0,29.7,0000.0,0012.32,0007.06,0005.93
2022-08-20 07:34:00,,0829.8,5.00,0.00,30.1,29.1,00.0,38.9,32.0,29.5,0000.0,0012.33,0007.05,0005.93
2022-08-20 07:35:00,,0829.8,4.99,0.00,30.2,29.1,00.0,38.9,32.0,29.4,0000.0,0012.42,0007.08,0005.93
2022-08-20 07:36:00,,0829.8,5.00,0.00,30.2,29.1,00.0,38.9,32.0,29.6,0000.0,0012.29,0007.08,0005.89
2022-08-20 07:37:00,,0829.8,5.00,0.00,30.2,29.1,00.0,38.9,32.0,29.8,0000.0,0012.15,0007.05,0005.87
2022-08-20 07:38:00,,0829.8,5.00,0.00,30.2,29.1,00.0,38.9,32.0,29.5,0000.0,0012.12,0007.02,0005.84
2022-08-20 07:39:00,,0829.8,4.99,0.00,30.2,29.2,00.0,38.9,32.1,29.6,0000.0,0011.92,0006.98,0005.82
2022-08-20 07:40:00,,0829.8,5.00,0.00,30.2,29.2,00.0,38.9,32.1,29.5,0000.0,0011.50,0006.95,0005.82
2022-08-20 07:41:00,,0829.8,5.01,0.00,30.2,28.8,00.0,38.9,32.0,29.6,0000.0,0011.46,0006.97,0005.81
2022-08-20 07:42:00,,0829.8,4.99,0.00,30.1,28.1,00.0,38.9,31.8,29.5,0000.0,0011.61,0006.99,0005.79
2022-08-20 07:43:00,,0829.8,5.00,0.00,30.1,27.7,00.0,38.9,31.7,29.4,0000.0,0011.50,0006.93,0005.77
2022-08-20 07:44:00,,0829.8,5.01,0.00,30.0,27.7,00.0,38.8,31.6,29.5,0000.0,0011.27,0006.83,0005.73
2022-08-20 07:45:00,,0829.8,5.00,0.00,29.9,27.7,00.0,38.8,31.6,29.8,0000.0,0011.40,0006.81,0005.70
2022-08-20 07:46:00,,0829.8,4.99,0.00,29.9,27.9,00.0,38.8,31.6,29.9,0000.0,0011.87,0006.79,0005.67
2022-08-20 07:47:00,,0829.8,5.01,0.00,29.9,28.0,00.0,38.7,31.6,29.4,0000.0,0012.88,0006.76,0005.66
2022-08-20 07:48:00,,0829.8,4.99,0.00,29.8,28.1,00.0,38.7,31.6,29.4,0000.0,0013.05,0006.80,0005.64
2022-08-20 07:49:00,,0829.8,5.01,0.00,29.8,28.2,00.0,38.7,31.6,29.5,0000.0,0013.15,0006.83,0005.65
2022-08-20 07:50:00,,0829.8,5.00,0.00,29.8,28.3,00.0,38.7,31.6,29.7,0000.0,0013.24,0006.84,0005.63
2022-08-20 07:51:00,,0829.8,4.99,0.00,29.8,28.4,00.0,38.7,31.7,29.6,0000.0,0013.40,0006.85,0005.60
2022-08-20 07:52:00,,0829.8,5.00,0.00,29.9,28.5,00.0,38.7,31.7,29.6,0000.0,0013.38,0006.83,0005.57
2022-08-20 07:53:00,,0829.8,4.99,0.00,29.9,28.5,00.0,38.7,31.7,29.6,0000.0,0013.20,0006.78,0005.55
2022-08-20 07:54:00,,0829.8,5.00,0.00,29.9,28.6,00.0,38.7,31.7,29.5,0000.0,0013.48,0006.81,0005.53
2022-08-20 07:55:00,,0829.8,5.00,0.00,29.9,28.7,00.0,38.7,31.8,29.5,0000.0,0013.70,0006.83,0005.51
2022-08-20 07:56:00,,0829.8,5.00,0.00,29.9,28.7,00.0,38.7,31.8,29.5,0000.0,0014.03,0006.74,0005.49
2022-08-20 07:57:00,,0829.8,4.99,0.00,29.9,28.7,00.0,38.7,31.8,29.3,0000.0,0013.45,0006.67,0005.48
2022-08-20 07:58:00,,0829.8,5.00,0.00,29.9,28.8,00.0,38.7,31.8,29.3,0000.0,0012.31,0006.64,0005.47
2022-08-20 07:59:00,,0829.8,5.00,0.00,30.0,28.8,00.0,38.7,31.9,29.0,0000.0,0012.14,0006.59,0005.47
